Location: Hermaringen
(48.5952°N, 10.2585°E)
Time: 20:18:25
(UTC+00:00)

NOAA 6 - Pass Details

Date: 18 November 2025
Orbit: 766 x 782 km, 98.6° (Epoch: 05 December)

Event Time Altitude Azimuth Distance (km) Brightness Sun altitude
Rises 17:18:14 0° 145° (SE) 3,253 7.0 -16.7°
Reaches altitude 10° 17:20:36 10° 139° (SE) 2,327 6.2 -17.1°
Maximum altitude 17:25:29 46° 68° (ENE) 1,038 4.2 -17.9°
Drops below altitude 10° 17:30:23 10° 356° (N) 2,334 6.5 -18.7°
Sets 17:32:46 0° 351° (N) 3,263 7.3 -19.1°
